カタログに戻る

ARIANE 5 R/B

運用中HEO
NORAD 38742·ROCKET BODY·🇫🇷 France

打ち上げ Aug 2, 2012 から Guiana Space Centre

Loading…

次のパス (今後24時間)

TLE

最新Source: Space-Track

元期: Sep 12, 2026, 18:08 UTC

1 38742U 12043C   26255.75558362  .00003884  00000-0  10558-2 0  9999
2 38742   5.8911 309.7968 7027227  59.2003 351.2789  2.60523934125195

AllMySatでARIANE 5 R/Bをリアルタイム追跡

Download on the App Store